[[{"header":{"parameterUnit":"m.s-1","parameterCategory":2,"la1":30.2991,"la2":30.254,"lo1":-89.0895,"lo2":-89.0444,"dy":0.0017,"dx":0.0017,"nx":28,"ny":28,"refTime":"2025-11-07T03:00:00:Z","depth":"0","parameterNumber":2,"parameterNumberName":"U-component_of_CURRENTS"},"data":[0,0,0,0,0,0,0,0,0,0,0,0,0,0,0,0,0,0,0,0,0,0,0,0,0,0,0,0,0,0,0,0,0,0,0,0,0,0,0,0,0,0,0,0,0,0,0,0,0,0,0,0,0,0,0,0,0,0,-0.1922,-0.1923,0,-0.1961,-0.1961,-0.1961,-0.1905,-0.1904,-0.1902,-0.1901,-0.1869,-0.1869,-0.187,0,0,0,0,0,0,0,0,0,0,0,0,0,-0.1786,-0.1789,-0.1922,-0.1923,-0.1924,-0.1961,-0.1961,-0.1961,-0.1905,-0.1904,-0.1902,-0.19,-0.1869,-0.1869,-0.187,0,0,0,0,0,0,0,0,0,0,0,0,0,-0.1832,-0.1789,-0.1922,-0.1905,-0.1905,-0.1961,-0.1961,-0.1961,-0.1906,-0.1904,-0.1901,-0.1899,-0.1868,-0.1869,-0.187,-0.1917,0,0,-0.1872,-0.1872,0,0,0,0,0,0,0,0,-0.1829,-0.1836,-0.1907,-0.1907,-0.1906,-0.1931,-0.1901,-0.1944,-0.1906,-0.1899,-0.1901,-0.1898,-0.1889,-0.1887,-0.1892,-0.1915,-0.1914,-0.1872,-0.1872,-0.1873,-0.1873,0,0,0,0,0,0,0,-0.1826,-0.1834,-0.1931,-0.1908,-0.1908,-0.1891,-0.1895,-0.1909,-0.1899,-0.19,-0.1897,-0.1911,-0.1887,-0.1892,-0.1891,-0.1913,-0.1872,-0.1873,-0.1873,-0.1873,-0.204,-0.2044,0,0,0,0,0,0,-0.1837,-0.1832,-0.193,-0.1933,-0.1868,-0.1896,-0.19,-0.192,-0.1901,-0.1898,-0.1913,-0.1909,-0.1891,-0.189,-0.1889,-0.1962,-0.1873,-0.1873,-0.1874,-0.2036,-0.2041,-0.2045,0,0,0,0,0,0,-0.1834,-0.1846,-0.1929,-0.1887,-0.1897,-0.1901,-0.1925,-0.1922,-0.1922,-0.1913,-0.1907,-0.1915,-0.189,-0.1888,-0.1931,-0.1959,-0.1874,-0.1874,-0.2031,-0.2037,-0.2043,-0.2096,0,0,0,0,0,0,-0.183,-0.1844,-0.1853,-0.1888,-0.19,-0.1975,-0.1927,-0.1925,-0.1937,-0.1931,-0.1913,-0.1908,-0.1888,-0.1931,-0.1932,-0.1959,-0.1875,-0.2026,-0.2034,-0.2041,-0.2089,-0.2103,-0.2115,0,0,0,0,0,-0.1825,-0.1856,-0.1853,-0.1865,-0.1916,-0.1977,-0.1982,-0.1972,-0.194,-0.1958,-0.1958,-0.1908,-0.1979,-0.1935,-0.1935,-0.1963,-0.2022,-0.2032,-0.204,-0.2084,-0.2101,-0.2115,0,0,0,0,0,0,-0.1791,-0.1855,-0.1852,-0.1897,-0.1938,-0.197,-0.1985,-0.1981,-0.1994,-0.198,-0.1955,-0.1954,-0.2012,-0.1996,-0.1948,-0.2043,-0.1995,-0.2005,-0.2028,-0.2044,-0.2056,-0.2008,-0.1875,0,0,0,0,0,-0.1794,-0.1834,-0.1889,-0.192,-0.1946,-0.1964,-0.1982,-0.1985,-0.2008,-0.2009,-0.201,-0.2021,-0.2055,-0.2052,-0.2088,-0.2124,-0.2073,-0.2151,-0.2164,-0.2174,-0.2143,-0.2107,-0.211,-0.2075,-0.2075,-0.2074,0,0,-0.1786,-0.1827,-0.1846,-0.1916,-0.194,-0.2002,-0.1968,-0.201,-0.205,-0.2007,-0.2059,-0.2075,-0.2086,-0.2142,-0.2164,-0.212,-0.217,-0.2186,-0.2193,-0.2155,-0.2116,-0.2118,-0.212,-0.2081,-0.208,-0.2079,0,0,-0.1808,-0.1833,-0.188,-0.1932,-0.1992,-0.202,-0.2037,-0.2089,-0.2094,-0.2162,-0.2148,-0.2176,-0.223,-0.223,-0.2238,-0.2346,-0.2258,-0.237,-0.2362,-0.2329,-0.2329,-0.2328,-0.2294,-0.2289,-0.2351,-0.2351,-0.2351,0,-0.1796,-0.1865,-0.1901,-0.1971,-0.2013,-0.2035,-0.2097,-0.213,-0.2187,-0.2178,-0.2191,-0.2247,-0.2269,-0.2288,-0.2338,-0.2366,-0.2325,-0.229,-0.2336,-0.2335,-0.2332,-0.2297,-0.2291,-0.2355,-0.2355,-0.2354,-0.2354,0,-0.1863,-0.1921,-0.1958,-0.2055,-0.2104,-0.2166,-0.2226,-0.2254,-0.2269,-0.2279,-0.2314,-0.2349,-0.2352,-0.2394,-0.2398,-0.2404,-0.2376,-0.2369,-0.2274,-0.2337,-0.2299,-0.2292,-0.236,-0.2359,-0.2358,-0.2357,0,0,-0.1828,-0.1978,-0.1987,-0.2034,-0.2153,-0.2193,-0.2265,-0.2308,-0.2297,-0.2359,-0.2344,-0.243,-0.2395,-0.2405,-0.241,-0.2387,-0.2378,-0.2366,-0.2363,-0.229,-0.2288,-0.2202,-0.2186,-0.236,-0.2359,-0.2358,-0.2274,0,-0.1867,-0.199,-0.2063,-0.2167,-0.2231,-0.2281,-0.233,-0.236,-0.2376,-0.2374,-0.2376,-0.2393,-0.2417,-0.2409,-0.2395,-0.2391,-0.2357,-0.24,-0.2272,-0.2268,-0.2148,-0.2174,-0.2066,-0.1975,-0.2266,-0.2265,-0.2264,0,-0.1902,-0.1982,-0.2088,-0.2193,-0.222,-0.2281,-0.2305,-0.2361,-0.2357,-0.2353,-0.2338,-0.2342,-0.2343,-0.2356,-0.2318,-0.2337,-0.231,-0.2296,-0.2292,-0.2172,-0.2167,-0.1959,-0.195,-0.1946,-0.2252,-0.2253,-0.2253,0,-0.1829,-0.1988,-0.2059,-0.2111,-0.2239,-0.2258,-0.231,-0.2326,-0.233,-0.2325,-0.2306,-0.2296,-0.2294,-0.2263,-0.2259,-0.2279,-0.2193,-0.2219,-0.2105,-0.2099,-0.1959,-0.1941,-0.1883,-0.2158,-0.2158,-0.2158,-0.2158,0,-0.1839,-0.189,-0.2026,-0.2068,-0.2101,-0.2212,-0.2219,-0.224,-0.2261,-0.224,-0.2279,-0.2249,-0.2267,-0.2233,-0.2222,-0.2129,-0.2158,-0.2082,-0.206,-0.1983,-0.1969,-0.1919,-0.1964,-0.2155,-0.2155,-0.2156,-0.2157,0,-0.1741,-0.1851,-0.1914,-0.2037,-0.207,-0.2079,-0.2169,-0.2156,-0.2202,-0.2178,-0.218,-0.2201,-0.2153,-0.2144,-0.2095,-0.2069,-0.1964,-0.1958,-0.1866,-0.1834,-0.1724,-0.1777,-0.1687,-0.1641,-0.1815,-0.1812,-0.181,0,-0.1709,-0.1736,-0.1837,-0.1844,-0.19,-0.1954,-0.1971,-0.2079,-0.2088,-0.2135,-0.211,-0.2087,-0.2018,-0.192,-0.186,-0.1772,-0.1827,-0.1652,-0.1674,-0.1674,-0.1719,-0.1781,-0.1755,-0.153,-0.1526,-0.1522,-0.1519,0,-0.1608,-0.1626,-0.1665,-0.1678,-0.171,-0.1754,-0.1821,-0.1835,-0.195,-0.1952,-0.1937,-0.1895,-0.1802,-0.1666,-0.1574,-0.1527,-0.1616,-0.1572,-0.159,-0.1489,-0.1532,-0.1492,-0.1647,-0.1487,-0.149,-0.1492,-0.1494,-0.1495,-0.1483,-0.1462,-0.149,-0.149,-0.1514,-0.1535,-0.1508,-0.1613,-0.1631,-0.1619,-0.1716,-0.1595,-0.155,-0.1386,-0.1339,-0.1244,-0.1343,-0.1232,-0.1296,-0.1359,-0.1306,-0.1384,-0.1192,-0.1194,-0.1195,-0.1196,-0.1197,0,-0.1334,-0.1328,-0.1304,-0.1296,-0.124,-0.1327,-0.1368,-0.1318,-0.1298,-0.1341,-0.1315,-0.1242,-0.1138,-0.111,-0.105,-0.1004,-0.1011,-0.101,-0.1083,-0.1069,-0.1126,-0.1102,-0.086,-0.086,-0.086,-0.086,-0.086,-0.086,-0.1253,-0.1193,-0.1189,-0.1046,-0.1015,-0.092,-0.0908,-0.0868,-0.0854,-0.0781,-0.0742,-0.0731,-0.0864,-0.1037,-0.1,-0.0945,-0.0972,-0.0927,-0.0995,-0.1061,-0.1088,-0.1114,-0.11,-0.0861,-0.0862,-0.0871,-0.0871,-0.0872]},{"header":{"parameterUnit":"m.s-1","parameterCategory":2,"la1":30.2991,"la2":30.254,"lo1":-89.0895,"lo2":-89.0444,"dy":0.0017,"dx":0.0017,"nx":28,"ny":28,"refTime":"2025-11-07T03:00:00:Z","depth":"0","parameterNumber":3,"parameterNumberName":"V-component_of_CURRENTS"},"data":[0,0,0,0,0,0,0,0,0,0,0,0,0,0,0,0,0,0,0,0,0,0,0,0,0,0,0,0,0,0,0,0,0,0,0,0,0,0,0,0,0,0,0,0,0,0,0,0,0,0,0,0,0,0,0,0,0,0,0.0639,0.064,0,0.0779,0.078,0.0782,0.0862,0.0862,0.0863,0.0864,0.0979,0.0981,0.0984,0,0,0,0,0,0,0,0,0,0,0,0,0,0.0469,0.0471,0.0638,0.064,0.0642,0.0779,0.078,0.0782,0.0862,0.0863,0.0863,0.0864,0.0978,0.0981,0.0984,0,0,0,0,0,0,0,0,0,0,0,0,0,0.0566,0.0472,0.0638,0.0701,0.0708,0.0778,0.078,0.0782,0.0862,0.0863,0.0863,0.0864,0.0977,0.0981,0.0985,0.0992,0,0,0.0996,0.0998,0,0,0,0,0,0,0,0,0.0561,0.0572,0.069,0.0697,0.0705,0.0806,0.0763,0.0852,0.0861,0.08,0.0864,0.0865,0.092,0.0929,0.095,0.0997,0.1002,0.0997,0.0999,0.1001,0.1002,0,0,0,0,0,0,0,0.0554,0.0567,0.0691,0.0692,0.0701,0.0733,0.0747,0.0781,0.0851,0.0806,0.0813,0.0833,0.0924,0.0946,0.0953,0.1004,0.0997,0.1,0.1002,0.1004,0.1048,0.1047,0,0,0,0,0,0,0.054,0.056,0.0687,0.0696,0.0637,0.0735,0.0751,0.0771,0.0852,0.0866,0.0832,0.0836,0.0939,0.0948,0.0957,0.093,0.1001,0.1004,0.1006,0.1049,0.1048,0.1047,0,0,0,0,0,0,0.0536,0.055,0.0681,0.0633,0.0653,0.0737,0.0759,0.0773,0.0797,0.0872,0.0886,0.0842,0.094,0.0952,0.0978,0.0937,0.1006,0.1009,0.1051,0.1049,0.1047,0.0902,0,0,0,0,0,0,0.0531,0.0548,0.0547,0.0632,0.0655,0.0707,0.0759,0.0775,0.081,0.0817,0.0885,0.0897,0.0941,0.0971,0.0981,0.0943,0.1012,0.1052,0.105,0.1048,0.0908,0.0895,0.0884,0,0,0,0,0,0.0524,0.0519,0.0547,0.0562,0.0655,0.0707,0.072,0.0781,0.0809,0.0808,0.0855,0.0895,0.0965,0.0974,0.0986,0.0948,0.1053,0.105,0.1048,0.0913,0.0898,0.0885,0,0,0,0,0,0,0.044,0.0529,0.0561,0.0582,0.0634,0.0721,0.0726,0.0773,0.0812,0.0815,0.0885,0.0899,0.0912,0.0951,0.0959,0.0956,0.1014,0.1013,0.0907,0.0893,0.0882,0.0856,0.1016,0,0,0,0,0,0.0423,0.0444,0.0529,0.0542,0.0564,0.0643,0.067,0.0713,0.0766,0.0785,0.0834,0.0879,0.091,0.0918,0.0962,0.0953,0.0995,0.0937,0.0926,0.0915,0.0903,0.0914,0.0901,0.1038,0.1038,0.1038,0,0,0.0395,0.0445,0.0457,0.0525,0.0569,0.0581,0.066,0.0692,0.0692,0.0789,0.0793,0.0849,0.0905,0.0902,0.0908,0.0926,0.0902,0.0912,0.0902,0.0896,0.091,0.0897,0.0885,0.1037,0.1037,0.1037,0,0,0.0344,0.039,0.0389,0.0423,0.0486,0.053,0.0535,0.0614,0.0635,0.0658,0.072,0.0748,0.0802,0.0822,0.0842,0.079,0.0852,0.0803,0.0704,0.0713,0.0702,0.0692,0.0741,0.0736,0.078,0.0779,0.0779,0,0.0303,0.0319,0.0392,0.0394,0.0408,0.0498,0.0486,0.0517,0.059,0.0588,0.0639,0.0705,0.076,0.0739,0.0725,0.076,0.079,0.0748,0.0695,0.0686,0.0679,0.0731,0.0728,0.0772,0.0773,0.0774,0.0774,0,0.0257,0.0261,0.0257,0.0288,0.0309,0.0312,0.0369,0.0375,0.0419,0.0457,0.0469,0.0549,0.0585,0.06,0.065,0.061,0.0659,0.0689,0.0723,0.0656,0.0717,0.0716,0.0762,0.0764,0.0766,0.0768,0,0,0.0187,0.0218,0.0214,0.0204,0.0251,0.0261,0.024,0.0249,0.0228,0.0292,0.0278,0.033,0.0387,0.0414,0.0476,0.0481,0.047,0.0547,0.0551,0.0582,0.0512,0.0555,0.0561,0.048,0.0478,0.0477,0.058,0,0.0125,0.0089,0.0129,0.0084,0.0068,0.0118,0.0092,0.0106,0.0138,0.0147,0.0211,0.0241,0.031,0.0336,0.0344,0.046,0.0459,0.0441,0.0585,0.059,0.0625,0.0557,0.0613,0.0708,0.058,0.058,0.0581,0,0.0068,0.0049,-0.0006,-0.0025,-0.0028,-0.004,-0.007,-0.0073,-0.0053,-0.003,-0.0005,0.0078,0.0118,0.0194,0.0299,0.0283,0.0372,0.0452,0.0458,0.0546,0.0631,0.0755,0.0713,0.0868,0.0581,0.0581,0.0581,0,-0.002,-0.0045,-0.0099,-0.0103,-0.0109,-0.0135,-0.0134,-0.0131,-0.0146,-0.0123,-0.0113,-0.0058,0.0014,0.0097,0.0281,0.0283,0.0415,0.0446,0.0559,0.0566,0.0666,0.0683,0.0778,0.0481,0.0481,0.0481,0.048,0,-0.0098,-0.0138,-0.0143,-0.0172,-0.0241,-0.0207,-0.0264,-0.0268,-0.0257,-0.0266,-0.0193,-0.0162,-0.0009,0.0103,0.0237,0.041,0.038,0.053,0.0577,0.0621,0.0631,0.0816,0.0872,0.0484,0.0484,0.0483,0.0482,0,-0.0168,-0.0177,-0.0238,-0.0268,-0.0278,-0.032,-0.0332,-0.0368,-0.0348,-0.0348,-0.0336,-0.023,-0.0074,0.0085,0.027,0.0377,0.0622,0.0585,0.0647,0.0698,0.0926,0.0971,0.1091,0.1189,0.0714,0.0715,0.0716,0,-0.02,-0.0239,-0.0305,-0.0349,-0.0357,-0.04,-0.0431,-0.0423,-0.0442,-0.0375,-0.0372,-0.0228,-0.0099,0.0185,0.0389,0.0606,0.071,0.0767,0.0762,0.093,0.1016,0.1035,0.111,0.086,0.0862,0.0864,0.0866,0,-0.0252,-0.0277,-0.0327,-0.0424,-0.0471,-0.0523,-0.0547,-0.0575,-0.0537,-0.0497,-0.0388,-0.0267,0.0014,0.0301,0.0562,0.0691,0.0883,0.081,0.0962,0.1104,0.1154,0.1276,0.0832,0.0882,0.0881,0.0879,0.0878,0.0878,-0.0275,-0.0329,-0.0398,-0.0488,-0.0555,-0.0615,-0.0634,-0.0615,-0.0593,-0.0443,-0.0351,-0.0051,0.0259,0.0648,0.078,0.1087,0.1033,0.1194,0.1231,0.1232,0.1324,0.0921,0.1029,0.1028,0.1028,0.1027,0.1026,0,-0.0298,-0.0361,-0.0451,-0.0554,-0.0628,-0.0646,-0.0689,-0.0655,-0.0572,-0.0325,-0.0132,0.0362,0.0699,0.0993,0.1344,0.1512,0.1545,0.1597,0.1653,0.1707,0.1349,0.1354,0.1563,0.1562,0.1562,0.1562,0.1562,0.1562,-0.0311,-0.0402,-0.0456,-0.0581,-0.0641,-0.0683,-0.0691,-0.0606,-0.0435,-0.0026,0.0377,0.0682,0.1024,0.1522,0.1874,0.1907,0.2076,0.2037,0.2121,0.1897,0.1863,0.183,0.185,0.2159,0.216,0.2493,0.2497,0.2499]}],[{"header":{"parameterUnit":"m.s-1","parameterCategory":2,"la1":30.2991,"la2":30.254,"lo1":-89.0895,"lo2":-89.0444,"dy":0.0017,"dx":0.0017,"nx":28,"ny":28,"refTime":"2025-11-07T03:00:00:Z","depth":"2","parameterNumber":2,"parameterNumberName":"U-component_of_CURRENTS"},"data":[0,0,0,0,0,0,0,0,0,0,0,0,0,0,0,0,0,0,0,0,0,0,0,0,0,0,0,0,0,0,0,0,0,0,0,0,0,0,0,0,0,0,0,0,0,0,0,0,0,0,0,0,0,0,0,0,0,0,-0.1894,-0.1895,0,-0.1955,-0.1956,-0.1956,-0.1979,-0.1979,-0.1979,-0.1979,-0.2064,-0.2066,-0.2068,0,0,0,0,0,0,0,0,0,0,0,0,0,-0.1811,-0.1812,-0.1894,-0.1895,-0.1896,-0.1955,-0.1956,-0.1956,-0.1979,-0.1979,-0.1979,-0.1979,-0.2063,-0.2065,-0.2068,0,0,0,0,0,0,0,0,0,0,0,0,0,-0.1855,-0.1813,-0.1893,-0.1916,-0.1918,-0.1955,-0.1956,-0.1957,-0.1979,-0.1979,-0.1979,-0.1979,-0.2062,-0.2065,-0.2068,-0.2089,0,0,-0.2079,-0.208,0,0,0,0,0,0,0,0,-0.1853,-0.1858,-0.1911,-0.1914,-0.1917,-0.1961,-0.1958,-0.2003,-0.1979,-0.1954,-0.1979,-0.1979,-0.2033,-0.2039,-0.2047,-0.2093,-0.2097,-0.2079,-0.2081,-0.2083,-0.2084,0,0,0,0,0,0,0,-0.185,-0.1856,-0.1916,-0.1913,-0.1916,-0.1928,-0.1934,-0.1966,-0.1991,-0.1956,-0.1958,-0.1969,-0.2034,-0.2043,-0.2049,-0.2098,-0.2079,-0.2082,-0.2084,-0.2085,-0.2195,-0.2196,0,0,0,0,0,0,-0.1846,-0.1853,-0.1914,-0.1918,-0.1887,-0.193,-0.1936,-0.1946,-0.1991,-0.1998,-0.1969,-0.197,-0.2038,-0.2045,-0.2052,-0.2114,-0.2083,-0.2086,-0.2088,-0.2194,-0.2196,-0.2197,0,0,0,0,0,0,-0.1844,-0.1851,-0.1912,-0.1888,-0.1897,-0.1931,-0.1942,-0.1947,-0.196,-0.2,-0.2008,-0.1977,-0.2038,-0.2047,-0.2094,-0.2116,-0.2087,-0.209,-0.2193,-0.2195,-0.2196,-0.2215,0,0,0,0,0,0,-0.1841,-0.1849,-0.1877,-0.1888,-0.1899,-0.1938,-0.1942,-0.1948,-0.1967,-0.1969,-0.201,-0.2017,-0.2039,-0.2089,-0.2098,-0.212,-0.2093,-0.2192,-0.2194,-0.2196,-0.2214,-0.2217,-0.222,0,0,0,0,0,-0.1838,-0.1855,-0.1878,-0.1887,-0.1928,-0.1939,-0.1945,-0.1967,-0.1967,-0.1978,-0.201,-0.2016,-0.2106,-0.2093,-0.2103,-0.2126,-0.2191,-0.2194,-0.2196,-0.2212,-0.2217,-0.222,0,0,0,0,0,0,-0.1833,-0.186,-0.1885,-0.1912,-0.1933,-0.1943,-0.1959,-0.1968,-0.2,-0.201,-0.2033,-0.2044,-0.2096,-0.2105,-0.2091,-0.2162,-0.2148,-0.2152,-0.2157,-0.2161,-0.2165,-0.2133,-0.2096,0,0,0,0,0,-0.1848,-0.1863,-0.1893,-0.1914,-0.1925,-0.1944,-0.1958,-0.1975,-0.1996,-0.2009,-0.2045,-0.208,-0.2111,-0.213,-0.2168,-0.2205,-0.2181,-0.2225,-0.2228,-0.2231,-0.2211,-0.2194,-0.2193,-0.2203,-0.2203,-0.2203,0,0,-0.1859,-0.1868,-0.1886,-0.1915,-0.1929,-0.1955,-0.1951,-0.1971,-0.1989,-0.2015,-0.2062,-0.2101,-0.2125,-0.2174,-0.2196,-0.2185,-0.2218,-0.2234,-0.2236,-0.2214,-0.2196,-0.2195,-0.2194,-0.2205,-0.2204,-0.2204,0,0,-0.1858,-0.1887,-0.1902,-0.1923,-0.1953,-0.1967,-0.1972,-0.2005,-0.2014,-0.2065,-0.2087,-0.2128,-0.219,-0.2206,-0.2218,-0.2257,-0.2241,-0.228,-0.2268,-0.2253,-0.2251,-0.2249,-0.2222,-0.2217,-0.2276,-0.2276,-0.2276,0,-0.1876,-0.189,-0.1908,-0.1926,-0.1942,-0.1969,-0.1988,-0.2005,-0.2056,-0.207,-0.2086,-0.2169,-0.2196,-0.2222,-0.224,-0.2263,-0.2247,-0.2252,-0.2254,-0.2252,-0.225,-0.2222,-0.2217,-0.2277,-0.2277,-0.2277,-0.2276,0,-0.1882,-0.1912,-0.1911,-0.1947,-0.1971,-0.1984,-0.2015,-0.2052,-0.2076,-0.2103,-0.2149,-0.2186,-0.2226,-0.2249,-0.2257,-0.2263,-0.2256,-0.2265,-0.2239,-0.2249,-0.2221,-0.2215,-0.2279,-0.2278,-0.2278,-0.2277,0,0,-0.1875,-0.191,-0.1919,-0.1932,-0.1979,-0.199,-0.2029,-0.206,-0.2084,-0.214,-0.2155,-0.2209,-0.223,-0.2241,-0.226,-0.2245,-0.2226,-0.2247,-0.2246,-0.2209,-0.2182,-0.2096,-0.2081,-0.2238,-0.2237,-0.2236,-0.217,0,-0.1873,-0.1896,-0.192,-0.1954,-0.1964,-0.2008,-0.2038,-0.2084,-0.2118,-0.2155,-0.2171,-0.2206,-0.2221,-0.2244,-0.2233,-0.2239,-0.221,-0.2242,-0.2185,-0.2183,-0.2096,-0.2072,-0.1929,-0.1851,-0.2164,-0.2163,-0.2162,0,-0.1863,-0.188,-0.1903,-0.194,-0.1951,-0.1983,-0.2031,-0.2062,-0.212,-0.2151,-0.2185,-0.2208,-0.221,-0.2213,-0.2188,-0.2211,-0.2186,-0.2176,-0.2174,-0.2075,-0.2085,-0.1891,-0.1828,-0.2152,-0.2152,-0.2153,-0.2154,0,-0.1809,-0.1859,-0.1864,-0.1883,-0.1945,-0.1963,-0.1997,-0.2065,-0.2088,-0.2138,-0.2169,-0.2185,-0.2187,-0.2167,-0.215,-0.2172,-0.2103,-0.2134,-0.2023,-0.2017,-0.187,-0.1852,-0.2081,-0.2081,-0.2081,-0.2081,-0.2082,0,-0.1764,-0.1783,-0.1843,-0.1849,-0.1873,-0.1928,-0.1957,-0.2009,-0.207,-0.2093,-0.2149,-0.2154,-0.2173,-0.2149,-0.2132,-0.2045,-0.2084,-0.1994,-0.1984,-0.1875,-0.1859,-0.2103,-0.2107,-0.2079,-0.208,-0.208,-0.208,0,-0.1696,-0.1739,-0.1753,-0.1817,-0.1839,-0.1855,-0.1925,-0.1949,-0.2023,-0.205,-0.2062,-0.2119,-0.2079,-0.2073,-0.2034,-0.2004,-0.1947,-0.1901,-0.1764,-0.1737,-0.1878,-0.1884,-0.1774,-0.177,-0.1767,-0.1765,-0.1762,0,-0.1662,-0.1656,-0.1711,-0.1727,-0.1753,-0.1793,-0.1819,-0.1909,-0.1936,-0.2015,-0.2013,-0.2007,-0.1961,-0.1875,-0.1809,-0.1726,-0.1824,-0.1574,-0.1582,-0.184,-0.1842,-0.1853,-0.1863,-0.1404,-0.1399,-0.1395,-0.1391,0,-0.1586,-0.1602,-0.1611,-0.1638,-0.1664,-0.1697,-0.1741,-0.1761,-0.1854,-0.1881,-0.1885,-0.1852,-0.1761,-0.1606,-0.1514,-0.1464,-0.1582,-0.1486,-0.1774,-0.1506,-0.1485,-0.149,-0.1513,-0.1355,-0.1358,-0.1361,-0.1363,-0.1365,-0.153,-0.1506,-0.1509,-0.1529,-0.1564,-0.1578,-0.1562,-0.1613,-0.1631,-0.1639,-0.1697,-0.1595,-0.1552,-0.1313,-0.1231,-0.118,-0.1294,-0.1271,-0.1285,-0.1304,-0.1276,-0.125,-0.107,-0.1072,-0.1073,-0.1075,-0.1076,0,-0.1447,-0.141,-0.1403,-0.141,-0.1392,-0.146,-0.1487,-0.1444,-0.1407,-0.1432,-0.1404,-0.1222,-0.1091,-0.1055,-0.0899,-0.0872,-0.0888,-0.0858,-0.0889,-0.0924,-0.0956,-0.0913,-0.0609,-0.0608,-0.0607,-0.0606,0,0,-0.1395,-0.1322,-0.1296,-0.1226,-0.1239,-0.1179,-0.1168,-0.1135,-0.1121,-0.1052,-0.1005,-0.1049,-0.1022,-0.0824,-0.0769,-0.0665,-0.0796,-0.063,-0.1001,-0.1073,-0.1103,-0.1183,-0.1154,0,0,0,0,0]},{"header":{"parameterUnit":"m.s-1","parameterCategory":2,"la1":30.2991,"la2":30.254,"lo1":-89.0895,"lo2":-89.0444,"dy":0.0017,"dx":0.0017,"nx":28,"ny":28,"refTime":"2025-11-07T03:00:00:Z","depth":"2","parameterNumber":3,"parameterNumberName":"V-component_of_CURRENTS"},"data":[0,0,0,0,0,0,0,0,0,0,0,0,0,0,0,0,0,0,0,0,0,0,0,0,0,0,0,0,0,0,0,0,0,0,0,0,0,0,0,0,0,0,0,0,0,0,0,0,0,0,0,0,0,0,0,0,0,0,-0.0362,-0.0361,0,-0.0289,-0.0288,-0.0287,-0.0243,-0.0242,-0.0242,-0.0242,-0.013,-0.0127,-0.0124,0,0,0,0,0,0,0,0,0,0,0,0,0,-0.039,-0.039,-0.0362,-0.0361,-0.036,-0.0289,-0.0288,-0.0287,-0.0243,-0.0242,-0.0242,-0.0242,-0.013,-0.0127,-0.0124,0,0,0,0,0,0,0,0,0,0,0,0,0,-0.0353,-0.039,-0.0362,-0.033,-0.0326,-0.0289,-0.0288,-0.0286,-0.0243,-0.0242,-0.0242,-0.0242,-0.0132,-0.0127,-0.0123,-0.0103,0,0,-0.011,-0.0109,0,0,0,0,0,0,0,0,-0.0356,-0.0352,-0.0335,-0.0332,-0.0328,-0.0275,-0.0256,-0.0223,-0.0243,-0.0274,-0.0242,-0.0242,-0.0175,-0.0167,-0.0154,-0.0098,-0.0093,-0.011,-0.0108,-0.0106,-0.0105,0,0,0,0,0,0,0,-0.0358,-0.0355,-0.0333,-0.0335,-0.033,-0.0293,-0.0289,-0.025,-0.0226,-0.0271,-0.0268,-0.026,-0.0172,-0.0158,-0.0151,-0.0092,-0.011,-0.0106,-0.0104,-0.0102,0.0073,0.0075,0,0,0,0,0,0,-0.0372,-0.0358,-0.0335,-0.0331,-0.0341,-0.0293,-0.0288,-0.0292,-0.0227,-0.0218,-0.0261,-0.0258,-0.0166,-0.0156,-0.0147,-0.007,-0.0106,-0.0102,-0.0099,0.0071,0.0074,0.0076,0,0,0,0,0,0,-0.0373,-0.0371,-0.0338,-0.0342,-0.0335,-0.0294,-0.0298,-0.0291,-0.0275,-0.022,-0.0209,-0.0253,-0.0165,-0.0153,-0.011,-0.0068,-0.01,-0.0096,0.0069,0.0072,0.0075,0.0051,0,0,0,0,0,0,-0.0374,-0.0372,-0.038,-0.0343,-0.0335,-0.0324,-0.0298,-0.0289,-0.0271,-0.0267,-0.0209,-0.0199,-0.0164,-0.0117,-0.0106,-0.0062,-0.0093,0.0066,0.007,0.0074,0.005,0.0053,0.0057,0,0,0,0,0,-0.0376,-0.039,-0.0381,-0.0378,-0.0348,-0.0324,-0.0317,-0.0286,-0.0271,-0.027,-0.0225,-0.02,-0.0082,-0.0113,-0.0101,-0.0054,0.0064,0.0069,0.0074,0.0048,0.0053,0.0057,0,0,0,0,0,0,-0.0407,-0.0386,-0.0375,-0.0383,-0.0359,-0.0317,-0.0313,-0.0289,-0.0253,-0.0247,-0.0195,-0.0181,-0.0119,-0.0086,-0.0121,0.0013,0.0004,0.0012,-0.0019,-0.0014,-0.001,-0.0068,-0.0089,0,0,0,0,0,-0.0418,-0.0424,-0.0394,-0.04,-0.0391,-0.0352,-0.0338,-0.0316,-0.0279,-0.0264,-0.022,-0.0157,-0.0089,-0.0056,-0.0003,0.0052,0.0064,0.0101,0.0104,0.0107,0.0073,0.0119,0.0122,0.0092,0.0092,0.0092,0,0,-0.0433,-0.0421,-0.0424,-0.0406,-0.0385,-0.0372,-0.0343,-0.0327,-0.031,-0.0256,-0.0221,-0.0154,-0.0073,-0.0003,0.0031,0.0028,0.0131,0.0113,0.0114,0.0078,0.0124,0.0126,0.0129,0.0095,0.0094,0.0094,0,0,-0.0462,-0.0454,-0.0466,-0.0449,-0.0422,-0.0391,-0.0389,-0.0348,-0.0326,-0.0287,-0.0222,-0.0151,-0.0063,0.0007,0.0056,0.0108,0.0144,0.016,0.0134,0.0181,0.0182,0.0184,0.0227,0.0232,0.0167,0.0167,0.0167,0,-0.048,-0.049,-0.0465,-0.0467,-0.0453,-0.0403,-0.0402,-0.0372,-0.0319,-0.0288,-0.0283,-0.0125,-0.0063,0.0044,0.0071,0.0113,0.0143,0.0107,0.018,0.0182,0.0183,0.0227,0.0233,0.0167,0.0167,0.0167,0.0167,0,-0.0513,-0.0517,-0.0522,-0.0506,-0.0485,-0.0479,-0.0432,-0.0399,-0.0359,-0.0315,-0.0226,-0.0148,-0.0053,0.0007,0.005,0.013,0.0151,0.0171,0.0154,0.0184,0.023,0.0237,0.0166,0.0166,0.0166,0.0167,0,0,-0.0567,-0.0551,-0.0553,-0.055,-0.0506,-0.0494,-0.0453,-0.0396,-0.0361,-0.0301,-0.0252,-0.0129,-0.0082,-0.0026,0.0059,0.0102,0.0155,0.0137,0.014,0.0152,0.0261,0.0286,0.0295,0.0193,0.0194,0.0194,0.0296,0,-0.0601,-0.0619,-0.0592,-0.0591,-0.0592,-0.0527,-0.0493,-0.043,-0.0369,-0.0309,-0.0214,-0.014,-0.0091,-0.0037,0.0013,0.0122,0.0167,0.0125,0.0253,0.0256,0.0251,0.0302,0.0293,0.0384,0.0302,0.0304,0.0304,0,-0.0644,-0.0648,-0.0664,-0.0629,-0.0623,-0.0608,-0.0531,-0.0494,-0.0385,-0.0336,-0.0249,-0.0178,-0.008,-0.0063,0.0088,0.0064,0.0146,0.0213,0.0219,0.024,0.0291,0.0341,0.0398,0.0315,0.0314,0.0313,0.0313,0,-0.0697,-0.0694,-0.0707,-0.0701,-0.0654,-0.0637,-0.0598,-0.0501,-0.0459,-0.0357,-0.0317,-0.0197,-0.0135,-0.0034,0.0106,0.0104,0.0253,0.0276,0.0372,0.0376,0.0387,0.039,0.0355,0.0355,0.0355,0.0354,0.0354,0,-0.0743,-0.0757,-0.0739,-0.0749,-0.0751,-0.0694,-0.0666,-0.0601,-0.0507,-0.0448,-0.0347,-0.028,-0.013,-0.0017,0.0096,0.0254,0.0252,0.0359,0.0402,0.0386,0.0387,0.0333,0.0329,0.0358,0.0357,0.0357,0.0356,0,-0.0803,-0.0793,-0.0812,-0.0786,-0.0782,-0.0783,-0.0725,-0.0694,-0.06,-0.0523,-0.0495,-0.0335,-0.018,-0.003,0.0157,0.0249,0.0392,0.0448,0.0416,0.0452,0.0485,0.0479,0.0562,0.0564,0.0565,0.0567,0.0568,0,-0.0838,-0.0854,-0.0857,-0.0877,-0.0873,-0.0865,-0.085,-0.0754,-0.0708,-0.0547,-0.0513,-0.0348,-0.0201,0.0071,0.0257,0.046,0.0448,0.0552,0.0537,0.0472,0.0505,0.0497,0.049,0.0562,0.0563,0.0564,0.0565,0,-0.0898,-0.0897,-0.0909,-0.0951,-0.0963,-0.0961,-0.0929,-0.0909,-0.0774,-0.0669,-0.0505,-0.0374,-0.0101,0.0139,0.0382,0.0491,0.0516,0.0573,0.0531,0.0502,0.0478,0.0509,0.05,0.0571,0.057,0.057,0.0569,0.0569,-0.0941,-0.0963,-0.0978,-0.1015,-0.1038,-0.1048,-0.1045,-0.0975,-0.0877,-0.0694,-0.0523,-0.0277,-0.0061,0.0309,0.0471,0.0606,0.0605,0.064,0.0636,0.0631,0.0603,0.0582,0.069,0.069,0.069,0.069,0.069,0,-0.0986,-0.0999,-0.1039,-0.1075,-0.1108,-0.1102,-0.1082,-0.1045,-0.0937,-0.0683,-0.0466,-0.0167,0.0118,0.0319,0.0556,0.0695,0.0672,0.0698,0.0649,0.0643,0.0638,0.0608,0.0697,0.0698,0.0698,0.0698,0,0,-0.1007,-0.1041,-0.1049,-0.1116,-0.115,-0.1163,-0.1158,-0.1079,-0.0905,-0.066,-0.0414,-0.0115,0.0157,0.032,0.0493,0.0607,0.0584,0.0608,0.0593,0.0512,0.0504,0.0601,0.0548,0,0,0,0,0]}],[{"header":{"parameterUnit":"m.s-1","parameterCategory":2,"la1":30.2991,"la2":30.254,"lo1":-89.0895,"lo2":-89.0444,"dy":0.0017,"dx":0.0017,"nx":28,"ny":28,"refTime":"2025-11-07T03:00:00:Z","depth":"4","parameterNumber":2,"parameterNumberName":"U-component_of_CURRENTS"},"data":[0,0,0,0,0,0,0,0,0,0,0,0,0,0,0,0,0,0,0,0,0,0,0,0,0,0,0,0,0,0,0,0,0,0,0,0,0,0,0,0,0,0,0,0,0,0,0,0,0,0,0,0,0,0,0,0,0,0,-0.122,-0.1221,0,-0.1296,-0.1296,-0.1297,-0.1332,-0.1332,-0.1332,-0.1332,-0.1392,-0.1393,-0.1395,0,0,0,0,0,0,0,0,0,0,0,0,0,-0.1128,-0.113,-0.122,-0.1221,-0.1222,-0.1296,-0.1296,-0.1297,-0.1332,-0.1332,-0.1332,-0.1332,-0.1391,-0.1393,-0.1395,0,0,0,0,0,0,0,0,0,0,0,0,0,-0.1181,-0.113,-0.122,-0.125,-0.1253,-0.1295,-0.1296,-0.1297,-0.1332,-0.1332,-0.1332,-0.1332,-0.1391,-0.1393,-0.1395,-0.1406,0,0,-0.1402,-0.1403,0,0,0,0,0,0,0,0,-0.1178,-0.1184,-0.1244,-0.1248,-0.1252,-0.1306,-0.1286,-0.1334,-0.1332,-0.13,-0.1332,-0.1332,-0.1363,-0.1367,-0.1379,-0.1409,-0.1411,-0.1402,-0.1403,-0.1404,-0.1405,0,0,0,0,0,0,0,-0.1174,-0.1181,-0.1248,-0.1245,-0.125,-0.1267,-0.1274,-0.1295,-0.1328,-0.1303,-0.1306,-0.1317,-0.1364,-0.1377,-0.138,-0.1412,-0.1402,-0.1404,-0.1405,-0.1406,-0.1514,-0.1515,0,0,0,0,0,0,-0.1167,-0.1177,-0.1246,-0.1251,-0.1216,-0.1269,-0.1277,-0.1287,-0.1328,-0.1335,-0.1317,-0.1319,-0.1373,-0.1378,-0.1383,-0.145,-0.1404,-0.1407,-0.1408,-0.1513,-0.1514,-0.1516,0,0,0,0,0,0,-0.1165,-0.1172,-0.1243,-0.1217,-0.1228,-0.127,-0.1282,-0.1289,-0.1322,-0.1339,-0.1346,-0.1346,-0.1373,-0.138,-0.1423,-0.145,-0.1408,-0.141,-0.1511,-0.1513,-0.1515,-0.1551,0,0,0,0,0,0,-0.1162,-0.1171,-0.1184,-0.1217,-0.1229,-0.1282,-0.1282,-0.129,-0.1328,-0.1332,-0.1366,-0.1371,-0.1374,-0.142,-0.1426,-0.1453,-0.1411,-0.1509,-0.1512,-0.1514,-0.1548,-0.1554,-0.1559,0,0,0,0,0,-0.1158,-0.1174,-0.1184,-0.1193,-0.1243,-0.1283,-0.1291,-0.132,-0.133,-0.135,-0.1376,-0.1371,-0.1442,-0.1423,-0.1429,-0.1458,-0.1507,-0.1511,-0.1514,-0.1545,-0.1553,-0.1559,0,0,0,0,0,0,-0.1143,-0.118,-0.1192,-0.1219,-0.1255,-0.129,-0.1315,-0.1334,-0.1371,-0.138,-0.1391,-0.1398,-0.1442,-0.145,-0.1429,-0.1498,-0.1474,-0.1479,-0.1495,-0.1503,-0.1508,-0.1515,-0.1413,0,0,0,0,0,-0.1145,-0.1167,-0.1205,-0.1229,-0.1248,-0.1285,-0.1309,-0.1332,-0.1365,-0.1383,-0.1407,-0.1435,-0.1458,-0.1481,-0.1499,-0.1543,-0.1534,-0.1565,-0.1571,-0.1576,-0.1587,-0.1604,-0.1612,-0.1527,-0.1527,-0.1527,0,0,-0.1147,-0.117,-0.1183,-0.1228,-0.1258,-0.1292,-0.13,-0.1345,-0.1378,-0.1383,-0.1439,-0.1454,-0.1473,-0.1516,-0.1538,-0.153,-0.1592,-0.158,-0.1584,-0.1592,-0.1608,-0.1616,-0.1623,-0.153,-0.1529,-0.1529,0,0,-0.1158,-0.1183,-0.1205,-0.1237,-0.1288,-0.1312,-0.1329,-0.1379,-0.1408,-0.146,-0.1468,-0.1509,-0.1548,-0.1572,-0.1585,-0.164,-0.1616,-0.1643,-0.1686,-0.1703,-0.171,-0.1716,-0.1692,-0.1696,-0.1653,-0.1653,-0.1654,0,-0.1159,-0.1191,-0.122,-0.1252,-0.1282,-0.1322,-0.1358,-0.1393,-0.1453,-0.1488,-0.1483,-0.1563,-0.1576,-0.1634,-0.165,-0.1654,-0.1642,-0.1655,-0.1709,-0.1715,-0.1721,-0.1695,-0.1699,-0.1656,-0.1655,-0.1655,-0.1655,0,-0.1182,-0.1217,-0.1236,-0.1286,-0.1323,-0.1363,-0.1412,-0.1464,-0.15,-0.1536,-0.1606,-0.1628,-0.1678,-0.1687,-0.1684,-0.1739,-0.1708,-0.1706,-0.1687,-0.1731,-0.1701,-0.1704,-0.1659,-0.1658,-0.1657,-0.1657,0,0,-0.1153,-0.1235,-0.1243,-0.1279,-0.1346,-0.1381,-0.1448,-0.152,-0.1575,-0.1627,-0.1688,-0.1736,-0.1755,-0.1772,-0.1779,-0.1798,-0.1814,-0.1771,-0.1771,-0.1739,-0.182,-0.1676,-0.1665,-0.1818,-0.1819,-0.182,-0.1774,0,-0.1162,-0.1224,-0.1266,-0.1333,-0.137,-0.1436,-0.1496,-0.157,-0.1627,-0.1694,-0.1737,-0.1787,-0.1784,-0.1807,-0.183,-0.1819,-0.1828,-0.1825,-0.179,-0.1788,-0.1649,-0.1666,-0.1825,-0.1776,-0.1777,-0.1777,-0.1778,0,-0.1163,-0.1208,-0.1273,-0.137,-0.1394,-0.1444,-0.1555,-0.1614,-0.1715,-0.1761,-0.1827,-0.1848,-0.1896,-0.1875,-0.1893,-0.1888,-0.1862,-0.1845,-0.1843,-0.1702,-0.1651,-0.173,-0.1782,-0.1782,-0.1782,-0.1781,-0.1781,0,-0.1119,-0.1212,-0.1266,-0.1297,-0.1409,-0.1466,-0.1529,-0.1639,-0.1698,-0.1798,-0.1837,-0.1902,-0.1917,-0.1923,-0.1889,-0.1895,-0.1875,-0.1879,-0.1726,-0.1714,-0.1841,-0.1836,-0.1889,-0.1889,-0.1889,-0.189,-0.189,0,-0.1098,-0.1145,-0.1257,-0.1286,-0.1364,-0.1451,-0.1543,-0.1622,-0.1727,-0.1781,-0.186,-0.1885,-0.1929,-0.192,-0.1898,-0.1801,-0.1883,-0.1729,-0.1698,-0.1854,-0.1851,-0.1841,-0.1836,-0.1888,-0.1888,-0.1889,-0.1889,0,-0.1036,-0.111,-0.118,-0.1303,-0.1345,-0.1398,-0.1532,-0.1593,-0.1701,-0.1767,-0.1794,-0.187,-0.1844,-0.1852,-0.1836,-0.1781,-0.1726,-0.1672,-0.1809,-0.1788,-0.1553,-0.1551,-0.1505,-0.1499,-0.1495,-0.1491,-0.1488,0,-0.1007,-0.1038,-0.1169,-0.1208,-0.1265,-0.1361,-0.1424,-0.156,-0.1613,-0.1734,-0.174,-0.1761,-0.1785,-0.1637,-0.167,-0.1602,-0.1585,-0.1553,-0.1585,-0.1541,-0.1517,-0.1522,-0.1526,-0.1481,-0.148,-0.1478,-0.1477,0,-0.0945,-0.1003,-0.106,-0.1137,-0.1207,-0.1284,-0.1376,-0.1402,-0.1541,-0.1649,-0.1634,-0.1615,-0.1569,-0.1536,-0.1477,-0.1443,-0.158,-0.1506,-0.1516,-0.1546,-0.1511,-0.1493,-0.1502,-0.1462,-0.1464,-0.1465,-0.1466,0,-0.0897,-0.0917,-0.0995,-0.1052,-0.1131,-0.1171,-0.1243,-0.1292,-0.1357,-0.1491,-0.1472,-0.1493,-0.1545,-0.145,-0.1407,-0.1345,-0.1335,-0.1312,-0.1332,-0.135,-0.132,-0.1254,-0.1094,0,0,0,0,0,-0.084,-0.0853,-0.0902,-0.096,-0.1031,-0.1073,-0.1193,-0.1268,-0.1391,-0.1337,-0.1405,-0.1357,-0.1295,-0.1309,-0.1207,-0.1329,-0.1336,-0.1209,-0.1321,-0.1375,-0.1393,-0.1371,0,0,0,0,0,0,-0.0803,-0.0843,-0.0866,-0.0864,-0.0877,-0.0946,-0.1013,-0.1105,-0.1089,-0.1208,-0.1168,-0.1262,-0.1204,-0.1303,-0.1167,-0.117,-0.1213,-0.1231,-0.1227,-0.1365,-0.1381,-0.1396,-0.138,0,0,0,0,0]},{"header":{"parameterUnit":"m.s-1","parameterCategory":2,"la1":30.2991,"la2":30.254,"lo1":-89.0895,"lo2":-89.0444,"dy":0.0017,"dx":0.0017,"nx":28,"ny":28,"refTime":"2025-11-07T03:00:00:Z","depth":"4","parameterNumber":3,"parameterNumberName":"V-component_of_CURRENTS"},"data":[0,0,0,0,0,0,0,0,0,0,0,0,0,0,0,0,0,0,0,0,0,0,0,0,0,0,0,0,0,0,0,0,0,0,0,0,0,0,0,0,0,0,0,0,0,0,0,0,0,0,0,0,0,0,0,0,0,0,-0.0274,-0.0274,0,-0.0244,-0.0244,-0.0243,-0.0221,-0.0221,-0.022,-0.022,-0.0189,-0.0189,-0.0188,0,0,0,0,0,0,0,0,0,0,0,0,0,-0.0263,-0.0264,-0.0274,-0.0274,-0.0274,-0.0244,-0.0244,-0.0243,-0.0221,-0.0221,-0.022,-0.022,-0.0189,-0.0189,-0.0188,0,0,0,0,0,0,0,0,0,0,0,0,0,-0.0254,-0.0264,-0.0274,-0.0259,-0.0257,-0.0244,-0.0244,-0.0243,-0.0221,-0.0221,-0.022,-0.022,-0.019,-0.0189,-0.0188,-0.0187,0,0,-0.0185,-0.0184,0,0,0,0,0,0,0,0,-0.0255,-0.0254,-0.0262,-0.026,-0.0258,-0.0236,-0.0228,-0.0224,-0.0221,-0.0234,-0.022,-0.022,-0.0205,-0.0203,-0.0197,-0.0185,-0.0184,-0.0185,-0.0184,-0.0184,-0.0183,0,0,0,0,0,0,0,-0.0255,-0.0255,-0.0262,-0.0261,-0.0259,-0.0237,-0.0236,-0.0227,-0.0221,-0.0233,-0.0232,-0.0229,-0.0204,-0.0198,-0.0196,-0.0183,-0.0185,-0.0184,-0.0183,-0.0183,-0.0168,-0.0169,0,0,0,0,0,0,-0.0263,-0.0256,-0.0263,-0.0261,-0.0256,-0.0238,-0.0236,-0.0243,-0.0221,-0.0218,-0.0229,-0.0228,-0.02,-0.0198,-0.0195,-0.0191,-0.0184,-0.0183,-0.0182,-0.0168,-0.0168,-0.0169,0,0,0,0,0,0,-0.0263,-0.0264,-0.0264,-0.0257,-0.0256,-0.0238,-0.0246,-0.0243,-0.0239,-0.0218,-0.0215,-0.0229,-0.02,-0.0197,-0.0194,-0.019,-0.0182,-0.0181,-0.0168,-0.0168,-0.0169,-0.0184,0,0,0,0,0,0,-0.0263,-0.0265,-0.0273,-0.0259,-0.0257,-0.0264,-0.0246,-0.0242,-0.0237,-0.0236,-0.0217,-0.0214,-0.0199,-0.0196,-0.0193,-0.0188,-0.018,-0.0168,-0.0168,-0.0168,-0.0183,-0.0185,-0.0186,0,0,0,0,0,-0.0263,-0.0278,-0.0274,-0.0274,-0.0269,-0.0265,-0.0262,-0.0247,-0.0238,-0.0242,-0.0229,-0.0214,-0.0196,-0.0195,-0.0192,-0.0187,-0.0167,-0.0168,-0.0168,-0.0182,-0.0184,-0.0186,0,0,0,0,0,0,-0.0278,-0.0277,-0.0272,-0.0286,-0.0278,-0.0261,-0.0263,-0.0251,-0.0243,-0.0242,-0.022,-0.0217,-0.0215,-0.0201,-0.0201,-0.0185,-0.0178,-0.0178,-0.019,-0.0191,-0.0193,-0.0176,-0.018,0,0,0,0,0,-0.0285,-0.0298,-0.0288,-0.03,-0.0298,-0.028,-0.0276,-0.0268,-0.0258,-0.0253,-0.024,-0.0225,-0.0214,-0.0204,-0.0198,-0.0188,-0.0151,-0.0182,-0.0184,-0.0185,-0.017,-0.0104,-0.0097,-0.017,-0.017,-0.017,0,0,-0.0295,-0.0295,-0.0302,-0.0304,-0.0296,-0.0299,-0.0278,-0.0278,-0.0275,-0.0252,-0.0249,-0.0237,-0.0216,-0.0208,-0.0204,-0.0194,-0.015,-0.0185,-0.0187,-0.017,-0.0103,-0.0096,-0.0089,-0.0171,-0.0171,-0.0171,0,0,-0.0318,-0.032,-0.0336,-0.0333,-0.0328,-0.0316,-0.0318,-0.0306,-0.0295,-0.0294,-0.0273,-0.025,-0.0246,-0.0213,-0.0198,-0.0202,-0.0168,-0.0211,-0.0194,-0.0131,-0.0124,-0.0117,-0.0081,-0.0071,-0.0203,-0.0203,-0.0203,0,-0.0328,-0.0348,-0.0339,-0.035,-0.0348,-0.0327,-0.0336,-0.0323,-0.0311,-0.0291,-0.03,-0.0254,-0.0241,-0.0195,-0.0199,-0.0202,-0.0173,-0.0189,-0.0131,-0.0123,-0.0115,-0.008,-0.0069,-0.0203,-0.0203,-0.0203,-0.0203,0,-0.0362,-0.0374,-0.0383,-0.039,-0.0386,-0.0392,-0.0372,-0.0363,-0.035,-0.0324,-0.0289,-0.0263,-0.0225,-0.0222,-0.0214,-0.0154,-0.0155,-0.0147,-0.0122,-0.0108,-0.0074,-0.0061,-0.0205,-0.0204,-0.0204,-0.0204,0,0,-0.0391,-0.0405,-0.0408,-0.0415,-0.0407,-0.0408,-0.0396,-0.0368,-0.0347,-0.0323,-0.0285,-0.0251,-0.0218,-0.0199,-0.0174,-0.0117,-0.0053,-0.0113,-0.0109,-0.0071,0.0068,0.0042,0.0053,-0.0034,-0.0032,-0.003,0.0065,0,-0.0418,-0.0451,-0.0444,-0.0463,-0.0475,-0.0445,-0.0433,-0.0401,-0.0369,-0.0329,-0.0264,-0.0233,-0.0214,-0.0197,-0.0133,-0.0082,-0.0018,-0.0081,0.0044,0.0048,0.003,0.0068,-0.0022,0.0074,0.0077,0.0079,0.0081,0,-0.0451,-0.0467,-0.0498,-0.0495,-0.0495,-0.0502,-0.0465,-0.045,-0.0376,-0.0345,-0.0275,-0.0232,-0.0149,-0.0142,-0.0005,-0.0049,0.0015,0.0062,0.0067,0.0064,0.0046,0.0063,0.0104,0.0102,0.01,0.0099,0.0097,0,-0.048,-0.05,-0.0527,-0.0531,-0.0526,-0.0525,-0.0514,-0.0456,-0.0431,-0.035,-0.0323,-0.0212,-0.0169,-0.0062,0.003,0.0017,0.0176,0.0171,0.0218,0.0215,0.0217,0.0209,0.0294,0.0294,0.0293,0.0293,0.0293,0,-0.0509,-0.0529,-0.0549,-0.0566,-0.0585,-0.0563,-0.0558,-0.0521,-0.0461,-0.042,-0.0336,-0.0278,-0.0145,-0.0045,0.0044,0.0164,0.0195,0.0237,0.0251,0.0202,0.0192,0.0224,0.0215,0.0297,0.0296,0.0295,0.0295,0,-0.0537,-0.0551,-0.0585,-0.0599,-0.0606,-0.062,-0.0608,-0.0593,-0.0531,-0.0476,-0.0452,-0.032,-0.0186,-0.0058,0.0113,0.017,0.0291,0.0331,0.0259,0.0263,0.0283,0.0271,0.0394,0.0395,0.0395,0.0395,0.0395,0,-0.0553,-0.0578,-0.0622,-0.0651,-0.0665,-0.0682,-0.0689,-0.0638,-0.0612,-0.0495,-0.0467,-0.0327,-0.023,-0.0005,0.0122,0.03,0.0323,0.037,0.0346,0.0299,0.03,0.0288,0.0277,0.0395,0.0395,0.0395,0.0395,0,-0.0581,-0.0604,-0.0634,-0.0697,-0.0729,-0.075,-0.0751,-0.0736,-0.0655,-0.0601,-0.0452,-0.0316,-0.0165,0.0005,0.0141,0.0267,0.0327,0.0372,0.0373,0.035,0.0301,0.0299,0.0288,0.0396,0.0396,0.0396,0.0396,0,-0.0601,-0.0633,-0.0682,-0.0729,-0.0779,-0.0801,-0.0797,-0.0743,-0.0698,-0.0554,-0.0503,-0.0317,-0.0195,-0.001,0.0117,0.0233,0.0258,0.0278,0.0284,0.0285,0.0216,0.0135,0.0209,0,0,0,0,0,-0.0611,-0.0649,-0.0706,-0.0758,-0.081,-0.083,-0.0827,-0.0805,-0.0729,-0.0625,-0.0552,-0.0396,-0.0168,-0.0064,0.0051,0.0085,0.0244,0.0218,0.026,0.0398,0.0398,0.0333,0,0,0,0,0,0,-0.0619,-0.0677,-0.0706,-0.0772,-0.0811,-0.0853,-0.0854,-0.0805,-0.073,-0.0631,-0.0504,-0.039,-0.0174,-0.0229,0.005,0.0087,0.0122,0.0339,0.0341,0.0398,0.0398,0.0398,0.0331,0,0,0,0,0]}]]